Year,Month,Day,Hour,Minute,Value (Times are PST for temperature in C)
2021,06,26,00,00,23.00
2021,06,26,00,01,22.90
2021,06,26,00,02,22.90
2021,06,26,00,03,22.90
2021,06,26,00,04,22.90
2021,06,26,00,05,22.90
2021,06,26,00,06,22.90
2021,06,26,00,07,22.90
2021,06,26,00,08,22.90
2021,06,26,00,09,22.80
2021,06,26,00,10,22.80
2021,06,26,00,11,22.80
2021,06,26,00,12,22.80
2021,06,26,00,13,22.70
2021,06,26,00,14,22.70
2021,06,26,00,15,22.70
2021,06,26,00,16,22.70
2021,06,26,00,17,22.70
2021,06,26,00,18,22.60
2021,06,26,00,19,22.60
2021,06,26,00,20,22.60
2021,06,26,00,21,22.60
2021,06,26,00,22,22.50
2021,06,26,00,23,22.50
2021,06,26,00,24,22.50
2021,06,26,00,25,22.50
2021,06,26,00,26,22.50
2021,06,26,00,27,22.40
2021,06,26,00,28,22.40
2021,06,26,00,29,22.40
2021,06,26,00,30,22.40
2021,06,26,00,31,22.30
2021,06,26,00,32,22.30
2021,06,26,00,33,22.30
2021,06,26,00,34,22.20
2021,06,26,00,35,22.20
2021,06,26,00,36,22.20
2021,06,26,00,37,22.20
2021,06,26,00,38,22.10
2021,06,26,00,39,22.10
2021,06,26,00,40,22.10
2021,06,26,00,41,22.10
2021,06,26,00,42,22.10
2021,06,26,00,43,22.10
2021,06,26,00,44,22.00
2021,06,26,00,45,22.00
2021,06,26,00,46,21.90
2021,06,26,00,47,21.90
2021,06,26,00,48,21.90
2021,06,26,00,49,21.80
2021,06,26,00,50,21.80
2021,06,26,00,51,21.80
2021,06,26,00,52,21.70
2021,06,26,00,53,21.70
2021,06,26,00,54,21.60
2021,06,26,00,55,21.50
2021,06,26,00,56,21.40
2021,06,26,00,57,21.30
2021,06,26,00,58,21.30
2021,06,26,00,59,21.20
2021,06,26,01,00,21.10
2021,06,26,01,01,21.00
2021,06,26,01,02,21.00
2021,06,26,01,03,20.90
2021,06,26,01,04,20.80
2021,06,26,01,05,20.70
2021,06,26,01,06,20.60
2021,06,26,01,07,20.60
2021,06,26,01,08,20.50
2021,06,26,01,09,20.40
2021,06,26,01,10,20.40
2021,06,26,01,11,20.30
2021,06,26,01,12,20.20
2021,06,26,01,13,20.20
2021,06,26,01,14,20.10
2021,06,26,01,15,20.00
2021,06,26,01,16,19.90
2021,06,26,01,17,19.90
2021,06,26,01,18,19.80
2021,06,26,01,19,19.80
2021,06,26,01,20,19.70
2021,06,26,01,21,19.60
2021,06,26,01,22,19.50
2021,06,26,01,23,19.50
2021,06,26,01,24,19.40
2021,06,26,01,25,19.40
2021,06,26,01,26,19.30
2021,06,26,01,27,19.30
2021,06,26,01,28,19.20
2021,06,26,01,29,19.20
2021,06,26,01,30,19.20
2021,06,26,01,31,19.10
2021,06,26,01,32,19.10
2021,06,26,01,33,19.10
2021,06,26,01,34,19.10
2021,06,26,01,35,19.10
2021,06,26,01,36,19.10
2021,06,26,01,37,19.10
2021,06,26,01,38,19.10
2021,06,26,01,39,19.10
2021,06,26,01,40,19.10
2021,06,26,01,41,19.10
2021,06,26,01,42,19.10
2021,06,26,01,43,19.10
2021,06,26,01,44,19.10
2021,06,26,01,45,19.10
2021,06,26,01,46,19.10
2021,06,26,01,47,19.20
2021,06,26,01,48,19.20
2021,06,26,01,49,19.30
2021,06,26,01,50,19.30
2021,06,26,01,51,19.40
2021,06,26,01,52,19.40
2021,06,26,01,53,19.50
2021,06,26,01,54,19.50
2021,06,26,01,55,19.60
2021,06,26,01,56,19.60
2021,06,26,01,57,19.60
2021,06,26,01,58,19.70
2021,06,26,01,59,19.70
2021,06,26,02,00,19.70
2021,06,26,02,01,19.70
2021,06,26,02,02,19.70
2021,06,26,02,03,19.80
2021,06,26,02,04,19.80
2021,06,26,02,05,19.80
2021,06,26,02,06,19.80
2021,06,26,02,07,19.90
2021,06,26,02,08,19.90
2021,06,26,02,09,19.90
2021,06,26,02,10,19.90
2021,06,26,02,11,19.90
2021,06,26,02,12,19.90
2021,06,26,02,13,19.90
2021,06,26,02,14,19.90
2021,06,26,02,15,19.90
2021,06,26,02,16,19.90
2021,06,26,02,17,19.90
2021,06,26,02,18,19.80
2021,06,26,02,19,19.80
2021,06,26,02,20,19.80
2021,06,26,02,21,19.80
2021,06,26,02,22,19.80
2021,06,26,02,23,19.70
2021,06,26,02,24,19.70
2021,06,26,02,25,19.70
2021,06,26,02,26,19.70
2021,06,26,02,27,19.60
2021,06,26,02,28,19.60
2021,06,26,02,29,19.60
2021,06,26,02,30,19.60
2021,06,26,02,31,19.50
2021,06,26,02,32,19.50
2021,06,26,02,33,19.50
2021,06,26,02,34,19.50
2021,06,26,02,35,19.40
2021,06,26,02,36,19.40
2021,06,26,02,37,19.40
2021,06,26,02,38,19.30
2021,06,26,02,39,19.30
2021,06,26,02,40,19.20
2021,06,26,02,41,19.20
2021,06,26,02,42,19.20
2021,06,26,02,43,19.20
2021,06,26,02,44,19.20
2021,06,26,02,45,19.20
2021,06,26,02,46,19.20
2021,06,26,02,47,19.20
2021,06,26,02,48,19.20
2021,06,26,02,49,19.20
2021,06,26,02,50,19.20
2021,06,26,02,51,19.30
2021,06,26,02,52,19.30
2021,06,26,02,53,19.30
2021,06,26,02,54,19.30
2021,06,26,02,55,19.40
2021,06,26,02,56,19.40
2021,06,26,02,57,19.40
2021,06,26,02,58,19.40
2021,06,26,02,59,19.40
2021,06,26,03,00,19.40
2021,06,26,03,01,19.40
2021,06,26,03,02,19.30
2021,06,26,03,03,19.20
2021,06,26,03,04,19.20
2021,06,26,03,05,19.10
2021,06,26,03,06,19.10
2021,06,26,03,07,19.10
2021,06,26,03,08,19.10
2021,06,26,03,09,19.10
2021,06,26,03,10,19.10
2021,06,26,03,11,19.10
2021,06,26,03,12,19.10
2021,06,26,03,13,18.90
2021,06,26,03,14,18.90
2021,06,26,03,15,18.90
2021,06,26,03,16,18.90
2021,06,26,03,17,18.80
2021,06,26,03,18,18.80
2021,06,26,03,19,18.70
2021,06,26,03,20,18.60
2021,06,26,03,21,18.60
2021,06,26,03,22,18.50
2021,06,26,03,23,18.50
2021,06,26,03,24,18.50
2021,06,26,03,25,18.40
2021,06,26,03,26,18.40
2021,06,26,03,27,18.40
2021,06,26,03,28,18.40
2021,06,26,03,29,18.40
2021,06,26,03,30,18.40
2021,06,26,03,31,18.40
2021,06,26,03,32,18.40
2021,06,26,03,33,18.40
2021,06,26,03,34,18.40
2021,06,26,03,35,18.40
2021,06,26,03,36,18.40
2021,06,26,03,37,18.40
2021,06,26,03,38,18.30
2021,06,26,03,39,18.30
2021,06,26,03,40,18.30
2021,06,26,03,41,18.30
2021,06,26,03,42,18.20
2021,06,26,03,43,18.20
2021,06,26,03,44,18.20
2021,06,26,03,45,18.20
2021,06,26,03,46,18.20
2021,06,26,03,47,18.20
2021,06,26,03,48,18.20
2021,06,26,03,49,18.20
2021,06,26,03,50,18.10
2021,06,26,03,51,18.10
2021,06,26,03,52,18.10
2021,06,26,03,53,18.10
2021,06,26,03,54,18.10
2021,06,26,03,55,18.10
2021,06,26,03,56,18.10
2021,06,26,03,57,18.10
2021,06,26,03,58,18.10
2021,06,26,03,59,18.10
2021,06,26,04,00,18.10
2021,06,26,04,01,18.00
2021,06,26,04,02,17.90
2021,06,26,04,03,17.90
2021,06,26,04,04,17.90
2021,06,26,04,05,17.90
2021,06,26,04,06,17.80
2021,06,26,04,07,17.80
2021,06,26,04,08,17.80
2021,06,26,04,09,17.90
2021,06,26,04,10,17.90
2021,06,26,04,11,17.90
2021,06,26,04,12,17.90
2021,06,26,04,13,17.90
2021,06,26,04,14,17.90
2021,06,26,04,15,17.90
2021,06,26,04,16,17.90
2021,06,26,04,17,17.90
2021,06,26,04,18,17.90
2021,06,26,04,19,17.90
2021,06,26,04,20,17.90
2021,06,26,04,21,17.90
2021,06,26,04,22,17.90
2021,06,26,04,23,17.90
2021,06,26,04,24,17.90
2021,06,26,04,25,17.90
2021,06,26,04,26,17.90
2021,06,26,04,27,17.90
2021,06,26,04,28,17.90
2021,06,26,04,29,17.90
2021,06,26,04,30,17.90
2021,06,26,04,31,17.90
2021,06,26,04,32,17.90
2021,06,26,04,33,17.90
2021,06,26,04,34,17.90
2021,06,26,04,35,17.90
2021,06,26,04,36,17.90
2021,06,26,04,37,17.90
2021,06,26,04,38,17.90
2021,06,26,04,39,17.90
2021,06,26,04,40,17.90
2021,06,26,04,41,17.90
2021,06,26,04,42,17.90
2021,06,26,04,43,17.90
2021,06,26,04,44,17.90
2021,06,26,04,45,17.90
2021,06,26,04,46,17.90
2021,06,26,04,47,17.90
2021,06,26,04,48,17.90
2021,06,26,04,49,17.90
2021,06,26,04,50,17.80
2021,06,26,04,51,17.80
2021,06,26,04,52,17.70
2021,06,26,04,53,17.70
2021,06,26,04,54,17.60
2021,06,26,04,55,17.50
2021,06,26,04,56,17.50
2021,06,26,04,57,17.40
2021,06,26,04,58,17.40
2021,06,26,04,59,17.40
2021,06,26,05,00,17.30
2021,06,26,05,01,17.30
2021,06,26,05,02,17.30
2021,06,26,05,03,17.30
2021,06,26,05,04,17.30
2021,06,26,05,05,17.20
2021,06,26,05,06,17.20
2021,06,26,05,07,17.20
2021,06,26,05,08,17.20
2021,06,26,05,09,17.20
2021,06,26,05,10,17.20
2021,06,26,05,11,17.20
2021,06,26,05,12,17.20
2021,06,26,05,13,17.20
2021,06,26,05,14,17.20
2021,06,26,05,15,17.20
2021,06,26,05,16,17.10
2021,06,26,05,17,17.10
2021,06,26,05,18,17.10
2021,06,26,05,19,17.10
2021,06,26,05,20,17.10
2021,06,26,05,21,17.10
2021,06,26,05,22,17.10
2021,06,26,05,23,17.10
2021,06,26,05,24,17.10
2021,06,26,05,25,17.10
2021,06,26,05,26,17.10
2021,06,26,05,27,17.10
2021,06,26,05,28,17.10
2021,06,26,05,29,17.10
2021,06,26,05,30,17.10
2021,06,26,05,31,17.20
2021,06,26,05,32,17.20
2021,06,26,05,33,17.20
2021,06,26,05,34,17.20
2021,06,26,05,35,17.20
2021,06,26,05,36,17.30
2021,06,26,05,37,17.30
2021,06,26,05,38,17.30
2021,06,26,05,39,17.30
2021,06,26,05,40,17.30
2021,06,26,05,41,17.40
2021,06,26,05,42,17.40
2021,06,26,05,43,17.50
2021,06,26,05,44,17.50
2021,06,26,05,45,17.50
2021,06,26,05,46,17.60
2021,06,26,05,47,17.70
2021,06,26,05,48,17.70
2021,06,26,05,49,17.80
2021,06,26,05,50,17.90
2021,06,26,05,51,17.90
2021,06,26,05,52,18.00
2021,06,26,05,53,18.10
2021,06,26,05,54,18.20
2021,06,26,05,55,18.30
2021,06,26,05,56,18.40
2021,06,26,05,57,18.50
2021,06,26,05,58,18.60
2021,06,26,05,59,18.70
2021,06,26,06,00,18.70
2021,06,26,06,01,18.90
2021,06,26,06,02,18.90
2021,06,26,06,03,19.00
2021,06,26,06,04,19.10
2021,06,26,06,05,19.20
2021,06,26,06,06,19.30
2021,06,26,06,07,19.40
2021,06,26,06,08,19.40
2021,06,26,06,09,19.50
2021,06,26,06,10,19.60
2021,06,26,06,11,19.70
2021,06,26,06,12,19.80
2021,06,26,06,13,19.90
2021,06,26,06,14,19.90
2021,06,26,06,15,20.00
2021,06,26,06,16,20.10
2021,06,26,06,17,20.20
2021,06,26,06,18,20.30
2021,06,26,06,19,20.40
2021,06,26,06,20,20.50
2021,06,26,06,21,20.60
2021,06,26,06,22,20.70
2021,06,26,06,23,20.80
2021,06,26,06,24,20.80
2021,06,26,06,25,20.90
2021,06,26,06,26,21.00
2021,06,26,06,27,21.10
2021,06,26,06,28,21.10
2021,06,26,06,29,21.20
2021,06,26,06,30,21.30
2021,06,26,06,31,21.30
2021,06,26,06,32,21.40
2021,06,26,06,33,21.50
2021,06,26,06,34,21.60
2021,06,26,06,35,21.70
2021,06,26,06,36,21.70
2021,06,26,06,37,21.80
2021,06,26,06,38,21.90
2021,06,26,06,39,22.00
2021,06,26,06,40,22.10
2021,06,26,06,41,22.20
2021,06,26,06,42,22.20
2021,06,26,06,43,22.30
2021,06,26,06,44,22.40
2021,06,26,06,45,22.50
2021,06,26,06,46,22.50
2021,06,26,06,47,22.60
2021,06,26,06,48,22.60
2021,06,26,06,49,22.70
2021,06,26,06,50,22.70
2021,06,26,06,51,22.80
2021,06,26,06,52,22.80
2021,06,26,06,53,22.90
2021,06,26,06,54,22.90
2021,06,26,06,55,22.90
2021,06,26,06,56,22.90
2021,06,26,06,57,23.00
2021,06,26,06,58,23.10
2021,06,26,06,59,23.10
2021,06,26,07,00,23.10
2021,06,26,07,01,23.20
2021,06,26,07,02,23.20
2021,06,26,07,03,23.20
2021,06,26,07,04,23.30
2021,06,26,07,05,23.30
2021,06,26,07,06,23.30
2021,06,26,07,07,23.30
2021,06,26,07,08,23.30
2021,06,26,07,09,23.40
2021,06,26,07,10,23.40
2021,06,26,07,11,23.40
2021,06,26,07,12,23.40
2021,06,26,07,13,23.50
2021,06,26,07,14,23.60
2021,06,26,07,15,23.60
2021,06,26,07,16,23.60
2021,06,26,07,17,23.70
2021,06,26,07,18,23.70
2021,06,26,07,19,23.70
2021,06,26,07,20,23.70
2021,06,26,07,21,23.80
2021,06,26,07,22,23.90
2021,06,26,07,23,23.90
2021,06,26,07,24,24.10
2021,06,26,07,25,24.10
2021,06,26,07,26,24.20
2021,06,26,07,27,24.20
2021,06,26,07,28,24.20
2021,06,26,07,29,24.20
2021,06,26,07,30,24.20
2021,06,26,07,31,24.20
2021,06,26,07,32,24.10
2021,06,26,07,33,24.10
2021,06,26,07,34,24.10
2021,06,26,07,35,24.10
2021,06,26,07,36,24.10
2021,06,26,07,37,24.10
2021,06,26,07,38,24.00
2021,06,26,07,39,23.90
2021,06,26,07,40,23.90
2021,06,26,07,41,23.80
2021,06,26,07,42,23.80
2021,06,26,07,43,23.70
2021,06,26,07,44,23.70
2021,06,26,07,45,23.60
2021,06,26,07,46,23.60
2021,06,26,07,47,23.50
2021,06,26,07,48,23.30
2021,06,26,07,49,23.00
2021,06,26,07,50,22.80
2021,06,26,07,51,22.80
2021,06,26,07,52,22.80
2021,06,26,07,53,22.80
2021,06,26,07,54,22.90
2021,06,26,07,55,22.90
2021,06,26,07,56,23.10
2021,06,26,07,57,23.20
2021,06,26,07,58,23.40
2021,06,26,07,59,23.60
2021,06,26,08,00,23.70
2021,06,26,08,01,23.90
2021,06,26,08,02,24.00
2021,06,26,08,03,24.10
2021,06,26,08,04,24.30
2021,06,26,08,05,24.50
2021,06,26,08,06,24.60
2021,06,26,08,07,24.70
2021,06,26,08,08,24.70
2021,06,26,08,09,24.80
2021,06,26,08,10,24.80
2021,06,26,08,11,24.80
2021,06,26,08,12,24.90
2021,06,26,08,13,25.00
2021,06,26,08,14,25.10
2021,06,26,08,15,25.20
2021,06,26,08,16,25.30
2021,06,26,08,17,25.30
2021,06,26,08,18,25.40
2021,06,26,08,19,25.40
2021,06,26,08,20,25.50
2021,06,26,08,21,25.50
2021,06,26,08,22,25.50
2021,06,26,08,23,25.50
2021,06,26,08,24,25.60
2021,06,26,08,25,25.60
2021,06,26,08,26,25.70
2021,06,26,08,27,25.80
2021,06,26,08,28,25.90
2021,06,26,08,29,25.90
2021,06,26,08,30,26.00
2021,06,26,08,31,26.00
2021,06,26,08,32,26.00
2021,06,26,08,33,26.00
2021,06,26,08,34,26.00
2021,06,26,08,35,26.00
2021,06,26,08,36,26.00
2021,06,26,08,37,26.00
2021,06,26,08,38,26.00
2021,06,26,08,39,26.00
2021,06,26,08,40,26.00
2021,06,26,08,41,25.90
2021,06,26,08,42,25.90
2021,06,26,08,43,25.90
2021,06,26,08,44,25.90
2021,06,26,08,45,25.90
2021,06,26,08,46,26.00
2021,06,26,08,47,26.00
2021,06,26,08,48,26.10
2021,06,26,08,49,26.10
2021,06,26,08,50,26.10
2021,06,26,08,51,26.10
2021,06,26,08,52,26.10
2021,06,26,08,53,26.10
2021,06,26,08,54,26.10
2021,06,26,08,55,26.10
2021,06,26,08,56,26.10
2021,06,26,08,57,26.10
2021,06,26,08,58,26.20
2021,06,26,08,59,26.20
2021,06,26,09,00,26.30
2021,06,26,09,01,26.40
2021,06,26,09,02,26.40
2021,06,26,09,03,26.40
2021,06,26,09,04,26.40
2021,06,26,09,05,26.50
2021,06,26,09,06,26.60
2021,06,26,09,07,26.60
2021,06,26,09,08,26.70
2021,06,26,09,09,26.80
2021,06,26,09,10,26.90
2021,06,26,09,11,27.10
2021,06,26,09,12,27.10
2021,06,26,09,13,27.20
2021,06,26,09,14,27.20
2021,06,26,09,15,27.30
2021,06,26,09,16,27.30
2021,06,26,09,17,27.30
2021,06,26,09,18,27.40
2021,06,26,09,19,27.40
2021,06,26,09,20,27.40
2021,06,26,09,21,27.40
2021,06,26,09,22,27.40
2021,06,26,09,23,27.40
2021,06,26,09,24,27.40
2021,06,26,09,25,27.40
2021,06,26,09,26,27.50
2021,06,26,09,27,27.60
2021,06,26,09,28,27.60
2021,06,26,09,29,27.60
2021,06,26,09,30,27.60
2021,06,26,09,31,27.60
2021,06,26,09,32,27.70
2021,06,26,09,33,27.70
2021,06,26,09,34,27.90
2021,06,26,09,35,28.00
2021,06,26,09,36,28.10
2021,06,26,09,37,28.10
2021,06,26,09,38,28.10
2021,06,26,09,39,28.00
2021,06,26,09,40,28.00
2021,06,26,09,41,27.90
2021,06,26,09,42,27.90
2021,06,26,09,43,27.90
2021,06,26,09,44,27.90
2021,06,26,09,45,27.90
2021,06,26,09,46,28.00
2021,06,26,09,47,28.00
2021,06,26,09,48,28.00
2021,06,26,09,49,28.00
2021,06,26,09,50,28.10
2021,06,26,09,51,28.10
2021,06,26,09,52,28.20
2021,06,26,09,53,28.20
2021,06,26,09,54,28.20
2021,06,26,09,55,28.20
2021,06,26,09,56,28.30
2021,06,26,09,57,28.30
2021,06,26,09,58,28.40
2021,06,26,09,59,28.40
2021,06,26,10,00,28.60
2021,06,26,10,01,28.60
2021,06,26,10,02,28.80
2021,06,26,10,03,28.80
2021,06,26,10,04,28.90
2021,06,26,10,05,28.90
2021,06,26,10,06,28.80
2021,06,26,10,07,28.80
2021,06,26,10,08,28.80
2021,06,26,10,09,28.80
2021,06,26,10,10,28.80
2021,06,26,10,11,28.90
2021,06,26,10,12,28.90
2021,06,26,10,13,28.90
2021,06,26,10,14,28.90
2021,06,26,10,15,28.90
2021,06,26,10,16,28.90
2021,06,26,10,17,28.90
2021,06,26,10,18,28.90
2021,06,26,10,19,28.90
2021,06,26,10,20,28.90
2021,06,26,10,21,28.90
2021,06,26,10,22,28.90
2021,06,26,10,23,28.90
2021,06,26,10,24,28.90
2021,06,26,10,25,28.90
2021,06,26,10,26,28.90
2021,06,26,10,27,28.80
2021,06,26,10,28,28.80
2021,06,26,10,29,28.80
2021,06,26,10,30,28.80
2021,06,26,10,31,28.80
2021,06,26,10,32,28.80
2021,06,26,10,33,28.80
2021,06,26,10,34,28.80
2021,06,26,10,35,28.80
2021,06,26,10,36,28.80
2021,06,26,10,37,28.70
2021,06,26,10,38,28.80
2021,06,26,10,39,28.80
2021,06,26,10,40,28.80
2021,06,26,10,41,28.90
2021,06,26,10,42,28.90
2021,06,26,10,43,28.90
2021,06,26,10,44,29.00
2021,06,26,10,45,29.10
2021,06,26,10,46,29.10
2021,06,26,10,47,29.20
2021,06,26,10,48,29.20
2021,06,26,10,49,29.30
2021,06,26,10,50,29.30
2021,06,26,10,51,29.30
2021,06,26,10,52,29.30
2021,06,26,10,53,29.40
2021,06,26,10,54,29.40
2021,06,26,10,55,29.50
2021,06,26,10,56,29.60
2021,06,26,10,57,29.70
2021,06,26,10,58,29.80
2021,06,26,10,59,29.80
2021,06,26,11,00,29.90
2021,06,26,11,01,29.90
2021,06,26,11,02,29.80
2021,06,26,11,03,29.80
2021,06,26,11,04,29.70
2021,06,26,11,05,29.70
2021,06,26,11,06,29.70
2021,06,26,11,07,29.70
2021,06,26,11,08,29.70
2021,06,26,11,09,29.70
2021,06,26,11,10,29.80
2021,06,26,11,11,29.80
2021,06,26,11,12,29.80
2021,06,26,11,13,29.80
2021,06,26,11,14,29.90
2021,06,26,11,15,29.90
2021,06,26,11,16,29.90
2021,06,26,11,17,29.90
2021,06,26,11,18,29.90
2021,06,26,11,19,29.90
2021,06,26,11,20,29.90
2021,06,26,11,21,29.90
2021,06,26,11,22,29.90
2021,06,26,11,23,29.90
2021,06,26,11,24,29.90
2021,06,26,11,25,30.00
2021,06,26,11,26,30.10
2021,06,26,11,27,30.20
2021,06,26,11,28,30.30
2021,06,26,11,29,30.40
2021,06,26,11,30,30.40
2021,06,26,11,31,30.40
2021,06,26,11,32,30.40
2021,06,26,11,33,30.60
2021,06,26,11,34,30.60
2021,06,26,11,35,30.40
2021,06,26,11,36,30.30
2021,06,26,11,37,30.30
2021,06,26,11,38,30.30
2021,06,26,11,39,30.30
2021,06,26,11,40,30.40
2021,06,26,11,41,30.30
2021,06,26,11,42,30.30
2021,06,26,11,43,30.30
2021,06,26,11,44,30.30
2021,06,26,11,45,30.40
2021,06,26,11,46,30.40
2021,06,26,11,47,30.60
2021,06,26,11,48,30.60
2021,06,26,11,49,30.70
2021,06,26,11,50,30.80
2021,06,26,11,51,30.80
2021,06,26,11,52,30.80
2021,06,26,11,53,30.70
2021,06,26,11,54,30.60
2021,06,26,11,55,30.60
2021,06,26,11,56,30.60
2021,06,26,11,57,30.60
2021,06,26,11,58,30.60
2021,06,26,11,59,30.60
2021,06,26,12,00,30.70
2021,06,26,12,01,30.60
2021,06,26,12,02,30.60
2021,06,26,12,03,30.60
2021,06,26,12,04,30.60
2021,06,26,12,05,30.60
2021,06,26,12,06,30.60
2021,06,26,12,07,30.60
2021,06,26,12,08,30.70
2021,06,26,12,09,30.70
2021,06,26,12,10,30.70
2021,06,26,12,11,30.70
2021,06,26,12,12,30.70
2021,06,26,12,13,30.70
2021,06,26,12,14,30.70
2021,06,26,12,15,30.80
2021,06,26,12,16,30.90
2021,06,26,12,17,30.90
2021,06,26,12,18,31.00
2021,06,26,12,19,31.10
2021,06,26,12,20,31.00
2021,06,26,12,21,31.00
2021,06,26,12,22,31.00
2021,06,26,12,23,31.10
2021,06,26,12,24,31.10
2021,06,26,12,25,31.20
2021,06,26,12,26,31.20
2021,06,26,12,27,31.20
2021,06,26,12,28,31.20
2021,06,26,12,29,31.20
2021,06,26,12,30,31.20
2021,06,26,12,31,31.30
2021,06,26,12,32,31.30
2021,06,26,12,33,31.30
2021,06,26,12,34,31.40
2021,06,26,12,35,31.40
2021,06,26,12,36,31.40
2021,06,26,12,37,31.40
2021,06,26,12,38,31.40
2021,06,26,12,39,31.50
2021,06,26,12,40,31.60
2021,06,26,12,41,31.60
2021,06,26,12,42,31.70
2021,06,26,12,43,31.80
2021,06,26,12,44,31.80
2021,06,26,12,45,31.90
2021,06,26,12,46,31.90
2021,06,26,12,47,32.00
2021,06,26,12,48,32.10
2021,06,26,12,49,32.10
2021,06,26,12,50,32.10
2021,06,26,12,51,32.10
2021,06,26,12,52,32.10
2021,06,26,12,53,32.10
2021,06,26,12,54,32.10
2021,06,26,12,55,32.10
2021,06,26,12,56,32.10
2021,06,26,12,57,32.10
2021,06,26,12,58,32.10
2021,06,26,12,59,32.10
2021,06,26,13,00,32.00
2021,06,26,13,01,31.90
2021,06,26,13,02,31.90
2021,06,26,13,03,31.90
2021,06,26,13,04,31.90
2021,06,26,13,05,32.00
2021,06,26,13,06,32.10
2021,06,26,13,07,32.10
2021,06,26,13,08,32.20
2021,06,26,13,09,32.30
2021,06,26,13,10,32.50
2021,06,26,13,11,32.60
2021,06,26,13,12,32.60
2021,06,26,13,13,32.60
2021,06,26,13,14,32.60
2021,06,26,13,15,32.60
2021,06,26,13,16,32.60
2021,06,26,13,17,32.60
2021,06,26,13,18,32.80
2021,06,26,13,19,32.80
2021,06,26,13,20,32.90
2021,06,26,13,21,32.90
2021,06,26,13,22,32.90
2021,06,26,13,23,33.00
2021,06,26,13,24,33.00
2021,06,26,13,25,33.00
2021,06,26,13,26,33.00
2021,06,26,13,27,33.00
2021,06,26,13,28,33.00
2021,06,26,13,29,33.00
2021,06,26,13,30,33.10
2021,06,26,13,31,33.10
2021,06,26,13,32,33.10
2021,06,26,13,33,33.10
2021,06,26,13,34,33.20
2021,06,26,13,35,33.20
2021,06,26,13,36,33.30
2021,06,26,13,37,33.40
2021,06,26,13,38,33.40
2021,06,26,13,39,33.50
2021,06,26,13,40,33.60
2021,06,26,13,41,33.60
2021,06,26,13,42,33.60
2021,06,26,13,43,33.60
2021,06,26,13,44,33.60
2021,06,26,13,45,33.60
2021,06,26,13,46,33.60
2021,06,26,13,47,33.60
2021,06,26,13,48,33.70
2021,06,26,13,49,33.70
2021,06,26,13,50,33.80
2021,06,26,13,51,33.80
2021,06,26,13,52,33.80
2021,06,26,13,53,34.00
2021,06,26,13,54,34.00
2021,06,26,13,55,34.10
2021,06,26,13,56,34.10
2021,06,26,13,57,34.00
2021,06,26,13,58,34.00
2021,06,26,13,59,33.90
2021,06,26,14,00,33.80
2021,06,26,14,01,33.70
2021,06,26,14,02,33.80
2021,06,26,14,03,33.80
2021,06,26,14,04,33.80
2021,06,26,14,05,34.00
2021,06,26,14,06,34.00
2021,06,26,14,07,34.10
2021,06,26,14,08,34.10
2021,06,26,14,09,34.20
2021,06,26,14,10,34.20
2021,06,26,14,11,34.20
2021,06,26,14,12,34.30
2021,06,26,14,13,34.40
2021,06,26,14,14,34.40
2021,06,26,14,15,34.40
2021,06,26,14,16,34.40
2021,06,26,14,17,34.30
2021,06,26,14,18,34.30
2021,06,26,14,19,34.30
2021,06,26,14,20,34.40
2021,06,26,14,21,34.50
2021,06,26,14,22,34.60
2021,06,26,14,23,34.60
2021,06,26,14,24,34.60
2021,06,26,14,25,34.50
2021,06,26,14,26,34.40
2021,06,26,14,27,34.40
2021,06,26,14,28,34.30
2021,06,26,14,29,34.30
2021,06,26,14,30,34.30
2021,06,26,14,31,34.30
2021,06,26,14,32,34.30
2021,06,26,14,33,34.30
2021,06,26,14,34,34.40
2021,06,26,14,35,34.40
2021,06,26,14,36,34.40
2021,06,26,14,37,34.40
2021,06,26,14,38,34.40
2021,06,26,14,39,34.30
2021,06,26,14,40,34.30
2021,06,26,14,41,34.30
2021,06,26,14,42,34.20
2021,06,26,14,43,34.20
2021,06,26,14,44,34.20
2021,06,26,14,45,34.20
2021,06,26,14,46,34.20
2021,06,26,14,47,34.30
2021,06,26,14,48,34.30
2021,06,26,14,49,34.40
2021,06,26,14,50,34.50
2021,06,26,14,51,34.60
2021,06,26,14,52,34.60
2021,06,26,14,53,34.70
2021,06,26,14,54,34.70
2021,06,26,14,55,34.70
2021,06,26,14,56,34.70
2021,06,26,14,57,34.70
2021,06,26,14,58,34.80
2021,06,26,14,59,34.70
2021,06,26,15,00,34.80
2021,06,26,15,01,34.80
2021,06,26,15,02,34.90
2021,06,26,15,03,34.90
2021,06,26,15,04,34.90
2021,06,26,15,05,34.90
2021,06,26,15,06,34.80
2021,06,26,15,07,34.80
2021,06,26,15,08,34.70
2021,06,26,15,09,34.70
2021,06,26,15,10,34.70
2021,06,26,15,11,34.70
2021,06,26,15,12,34.70
2021,06,26,15,13,34.70
2021,06,26,15,14,34.70
2021,06,26,15,15,34.60
2021,06,26,15,16,34.60
2021,06,26,15,17,34.50
2021,06,26,15,18,34.40
2021,06,26,15,19,34.30
2021,06,26,15,20,34.30
2021,06,26,15,21,34.30
2021,06,26,15,22,34.30
2021,06,26,15,23,34.30
2021,06,26,15,24,34.30
2021,06,26,15,25,34.30
2021,06,26,15,26,34.40
2021,06,26,15,27,34.50
2021,06,26,15,28,34.60
2021,06,26,15,29,34.70
2021,06,26,15,30,34.70
2021,06,26,15,31,34.70
2021,06,26,15,32,34.70
2021,06,26,15,33,34.80
2021,06,26,15,34,34.80
2021,06,26,15,35,34.80
2021,06,26,15,36,34.70
2021,06,26,15,37,34.70
2021,06,26,15,38,34.70
2021,06,26,15,39,34.70
2021,06,26,15,40,34.70
2021,06,26,15,41,34.80
2021,06,26,15,42,34.80
2021,06,26,15,43,34.80
2021,06,26,15,44,34.80
2021,06,26,15,45,34.80
2021,06,26,15,46,34.90
2021,06,26,15,47,35.00
2021,06,26,15,48,35.10
2021,06,26,15,49,35.10
2021,06,26,15,50,35.10
2021,06,26,15,51,35.10
2021,06,26,15,52,35.20
2021,06,26,15,53,35.30
2021,06,26,15,54,35.30
2021,06,26,15,55,35.30
2021,06,26,15,56,35.30
2021,06,26,15,57,35.30
2021,06,26,15,58,35.30
2021,06,26,15,59,35.40
2021,06,26,16,00,35.50
2021,06,26,16,01,35.50
2021,06,26,16,02,35.50
2021,06,26,16,03,35.60
2021,06,26,16,04,35.60
2021,06,26,16,05,35.60
2021,06,26,16,06,35.70
2021,06,26,16,07,35.70
2021,06,26,16,08,35.70
2021,06,26,16,09,35.70
2021,06,26,16,10,35.70
2021,06,26,16,11,35.70
2021,06,26,16,12,35.80
2021,06,26,16,13,35.90
2021,06,26,16,14,35.80
2021,06,26,16,15,35.60
2021,06,26,16,16,35.50
2021,06,26,16,17,35.50
2021,06,26,16,18,35.50
2021,06,26,16,19,35.50
2021,06,26,16,20,35.40
2021,06,26,16,21,35.40
2021,06,26,16,22,35.50
2021,06,26,16,23,35.50
2021,06,26,16,24,35.30
2021,06,26,16,25,35.20
2021,06,26,16,26,35.00
2021,06,26,16,27,34.80
2021,06,26,16,28,34.80
2021,06,26,16,29,34.80
2021,06,26,16,30,34.70
2021,06,26,16,31,34.70
2021,06,26,16,32,34.40
2021,06,26,16,33,34.20
2021,06,26,16,34,33.90
2021,06,26,16,35,33.60
2021,06,26,16,36,33.40
2021,06,26,16,37,33.20
2021,06,26,16,38,33.00
2021,06,26,16,39,33.00
2021,06,26,16,40,32.90
2021,06,26,16,41,32.90
2021,06,26,16,42,32.90
2021,06,26,16,43,32.90
2021,06,26,16,44,32.90
2021,06,26,16,45,33.00
2021,06,26,16,46,32.90
2021,06,26,16,47,32.80
2021,06,26,16,48,32.80
2021,06,26,16,49,32.60
2021,06,26,16,50,32.60
2021,06,26,16,51,32.60
2021,06,26,16,52,32.60
2021,06,26,16,53,32.50
2021,06,26,16,54,32.50
2021,06,26,16,55,32.50
2021,06,26,16,56,32.50
2021,06,26,16,57,32.50
2021,06,26,16,58,32.60
2021,06,26,16,59,32.60
2021,06,26,17,00,32.60
2021,06,26,17,01,32.60
2021,06,26,17,02,32.50
2021,06,26,17,03,32.40
2021,06,26,17,04,32.40
2021,06,26,17,05,32.40
2021,06,26,17,06,32.30
2021,06,26,17,07,32.40
2021,06,26,17,08,32.40
2021,06,26,17,09,32.40
2021,06,26,17,10,32.40
2021,06,26,17,11,32.40
2021,06,26,17,12,32.40
2021,06,26,17,13,32.30
2021,06,26,17,14,32.30
2021,06,26,17,15,32.30
2021,06,26,17,16,32.30
2021,06,26,17,17,32.40
2021,06,26,17,18,32.40
2021,06,26,17,19,32.50